Time,TemperatureF,DewpointF,PressureIn,WindDirection,WindDirectionDegrees,WindSpeedMPH,WindSpeedGustMPH,Humidity,HourlyPrecipIn,Conditions,Clouds,dailyrainin,SoftwareType,DateUTC
2013-02-12 00:01:00,33.0,22.0,-100.00,SSW,210,2.0,13.0,62,-99.99,,,-99.99,,2013-02-12 05:01:00,
2013-02-12 00:11:00,33.0,22.0,-100.00,SSW,210,6.0,11.0,62,-99.99,,,-99.99,,2013-02-12 05:11:00,
2013-02-12 00:21:00,33.0,22.0,-100.00,SSW,210,2.0,12.0,62,-99.99,,,-99.99,,2013-02-12 05:21:00,
2013-02-12 00:32:00,33.0,22.0,-100.00,SSW,210,3.0,12.0,63,-99.99,,,-99.99,,2013-02-12 05:32:00,
2013-02-12 00:42:00,33.0,21.0,-100.00,SSW,210,3.0,10.0,62,-99.99,,,-99.99,,2013-02-12 05:42:00,
2013-02-12 00:52:00,33.0,21.0,-100.00,SSW,205,4.0,15.0,61,-99.99,,,-99.99,,2013-02-12 05:52:00,
2013-02-12 01:02:00,33.0,21.0,-100.00,SSW,205,4.0,15.0,61,-99.99,,,-99.99,,2013-02-12 06:02:00,
2013-02-12 01:12:00,33.0,21.0,-100.00,SSW,205,2.0,11.0,61,-99.99,,,-99.99,,2013-02-12 06:12:00,
2013-02-12 01:22:00,33.0,21.0,-100.00,SSW,205,1.0,10.0,61,-99.99,,,-99.99,,2013-02-12 06:22:00,
2013-02-12 01:32:00,33.0,21.0,-100.00,SSW,210,6.0,11.0,62,-99.99,,,-99.99,,2013-02-12 06:32:00,
2013-02-12 01:42:00,33.0,21.0,-100.00,SSW,210,4.0,10.0,62,-99.99,,,-99.99,,2013-02-12 06:42:00,
2013-02-12 01:51:00,33.0,21.0,-100.00,SSW,210,2.0,11.0,62,-99.99,,,-99.99,,2013-02-12 06:51:00,
2013-02-12 02:02:00,33.0,21.0,-100.00,SSW,210,4.0,9.0,63,-99.99,,,-99.99,,2013-02-12 07:02:00,
2013-02-12 02:11:00,33.0,22.0,-100.00,SW,215,1.0,7.0,63,-99.99,,,-99.99,,2013-02-12 07:11:00,
2013-02-12 02:21:00,32.0,22.0,-100.00,SW,215,1.0,5.0,64,-99.99,,,-99.99,,2013-02-12 07:21:00,
2013-02-12 02:32:00,32.0,22.0,-100.00,SW,220,1.0,6.0,65,-99.99,,,-99.99,,2013-02-12 07:32:00,
2013-02-12 02:42:00,32.0,22.0,-100.00,SW,220,1.0,6.0,65,-99.99,,,-99.99,,2013-02-12 07:42:00,
2013-02-12 02:51:00,32.0,21.0,-100.00,SW,215,4.0,9.0,64,-99.99,,,-99.99,,2013-02-12 07:51:00,
2013-02-12 03:01:00,32.0,21.0,-100.00,SW,215,3.0,11.0,64,-99.99,,,-99.99,,2013-02-12 08:01:00,
2013-02-12 03:11:00,32.0,21.0,-100.00,SW,215,3.0,11.0,64,-99.99,,,-99.99,,2013-02-12 08:11:00,
2013-02-12 03:21:00,32.0,21.0,-100.00,SW,215,4.0,12.0,63,-99.99,,,-99.99,,2013-02-12 08:21:00,
2013-02-12 03:32:00,32.0,21.0,-100.00,SSW,210,4.0,13.0,63,-99.99,,,-99.99,,2013-02-12 08:32:00,
2013-02-12 03:42:00,32.0,21.0,-100.00,SSW,210,4.0,12.0,63,-99.99,,,-99.99,,2013-02-12 08:42:00,
2013-02-12 03:52:00,32.0,21.0,-100.00,SSW,210,5.0,12.0,63,-99.99,,,-99.99,,2013-02-12 08:52:00,
2013-02-12 04:02:00,32.0,21.0,-100.00,SSW,210,3.0,12.0,63,-99.99,,,-99.99,,2013-02-12 09:02:00,
2013-02-12 04:11:00,32.0,21.0,-100.00,SW,215,4.0,12.0,63,-99.99,,,-99.99,,2013-02-12 09:11:00,
2013-02-12 04:21:00,32.0,21.0,-100.00,SW,215,3.0,12.0,63,-99.99,,,-99.99,,2013-02-12 09:21:00,
2013-02-12 04:32:00,32.0,21.0,-100.00,SSW,210,4.0,11.0,63,-99.99,,,-99.99,,2013-02-12 09:32:00,
2013-02-12 04:42:00,32.0,21.0,-100.00,SW,215,1.0,14.0,63,-99.99,,,-99.99,,2013-02-12 09:42:00,
2013-02-12 04:51:00,32.0,21.0,-100.00,SW,215,3.0,12.0,63,-99.99,,,-99.99,,2013-02-12 09:51:00,
2013-02-12 05:01:00,32.0,21.0,-100.00,SW,215,2.0,9.0,63,-99.99,,,-99.99,,2013-02-12 10:01:00,
2013-02-12 05:11:00,32.0,21.0,-100.00,SW,215,2.0,11.0,64,-99.99,,,-99.99,,2013-02-12 10:11:00,
2013-02-12 05:21:00,32.0,21.0,-100.00,SW,215,2.0,7.0,64,-99.99,,,-99.99,,2013-02-12 10:21:00,
2013-02-12 05:32:00,32.0,21.0,-100.00,SW,220,0.0,7.0,64,-99.99,,,-99.99,,2013-02-12 10:32:00,
2013-02-12 05:43:00,32.0,21.0,-100.00,SW,225,2.0,6.0,65,-99.99,,,-99.99,,2013-02-12 10:43:00,
2013-02-12 05:51:00,32.0,22.0,-100.00,SW,225,1.0,4.0,66,-99.99,,,-99.99,,2013-02-12 10:51:00,
2013-02-12 06:01:00,32.0,22.0,-100.00,SW,230,0.0,6.0,66,-99.99,,,-99.99,,2013-02-12 11:01:00,
2013-02-12 06:11:00,32.0,22.0,-100.00,SW,230,4.0,10.0,67,-99.99,,,-99.99,,2013-02-12 11:11:00,
2013-02-12 06:22:00,31.0,22.0,-100.00,SW,230,3.0,8.0,67,-99.99,,,-99.99,,2013-02-12 11:22:00,
2013-02-12 06:32:00,31.0,22.0,-100.00,SW,230,3.0,9.0,66,-99.99,,,-99.99,,2013-02-12 11:32:00,
2013-02-12 06:42:00,31.0,22.0,-100.00,SW,225,4.0,10.0,66,-99.99,,,-99.99,,2013-02-12 11:42:00,
2013-02-12 06:52:00,31.0,21.0,-100.00,SW,220,3.0,11.0,65,-99.99,,,-99.99,,2013-02-12 11:52:00,
2013-02-12 07:02:00,31.0,21.0,-100.00,SW,225,0.0,7.0,65,-99.99,,,-99.99,,2013-02-12 12:02:00,
2013-02-12 07:11:00,31.0,21.0,-100.00,SW,225,2.0,9.0,65,-99.99,,,-99.99,,2013-02-12 12:11:00,
2013-02-12 07:21:00,31.0,22.0,-100.00,SW,225,1.0,8.0,66,-99.99,,,-99.99,,2013-02-12 12:21:00,
2013-02-12 07:32:00,31.0,22.0,-100.00,SW,225,0.0,4.0,66,-99.99,,,-99.99,,2013-02-12 12:32:00,
2013-02-12 07:42:00,31.0,22.0,-100.00,SW,230,1.0,6.0,66,-99.99,,,-99.99,,2013-02-12 12:42:00,
2013-02-12 07:52:00,31.0,22.0,-100.00,SW,230,2.0,10.0,67,-99.99,,,-99.99,,2013-02-12 12:52:00,
2013-02-12 08:02:00,31.0,21.0,-100.00,SW,230,2.0,6.0,66,-99.99,,,-99.99,,2013-02-12 13:02:00,
2013-02-12 08:11:00,31.0,21.0,-100.00,SW,230,3.0,6.0,66,-99.99,,,-99.99,,2013-02-12 13:11:00,
2013-02-12 08:22:00,31.0,21.0,-100.00,SW,230,2.0,10.0,66,-99.99,,,-99.99,,2013-02-12 13:22:00,
2013-02-12 08:32:00,31.0,21.0,-100.00,SW,225,3.0,7.0,66,-99.99,,,-99.99,,2013-02-12 13:32:00,
2013-02-12 08:42:00,31.0,21.0,-100.00,SW,225,2.0,9.0,66,-99.99,,,-99.99,,2013-02-12 13:42:00,
2013-02-12 08:52:00,31.0,21.0,-100.00,SW,225,3.0,7.0,66,-99.99,,,-99.99,,2013-02-12 13:52:00,
2013-02-12 09:01:00,31.0,21.0,-100.00,SW,225,2.0,6.0,66,-99.99,,,-99.99,,2013-02-12 14:01:00,
2013-02-12 09:12:00,31.0,21.0,-100.00,SW,225,1.0,6.0,66,-99.99,,,-99.99,,2013-02-12 14:12:00,
2013-02-12 09:21:00,31.0,21.0,-100.00,SW,230,0.0,7.0,66,-99.99,,,-99.99,,2013-02-12 14:21:00,
2013-02-12 09:32:00,31.0,21.0,-100.00,SW,230,1.0,6.0,66,-99.99,,,-99.99,,2013-02-12 14:32:00,
2013-02-12 09:42:00,31.0,21.0,-100.00,SW,230,2.0,9.0,66,-99.99,,,-99.99,,2013-02-12 14:42:00,
2013-02-12 09:52:00,31.0,21.0,-100.00,SW,230,2.0,9.0,66,-99.99,,,-99.99,,2013-02-12 14:52:00,
2013-02-12 10:02:00,31.0,22.0,-100.00,SW,230,0.0,6.0,66,-99.99,,,-99.99,,2013-02-12 15:02:00,
2013-02-12 10:11:00,31.0,22.0,-100.00,SW,230,3.0,7.0,66,-99.99,,,-99.99,,2013-02-12 15:11:00,
2013-02-12 10:21:00,31.0,22.0,-100.00,SW,230,3.0,7.0,66,-99.99,,,-99.99,,2013-02-12 15:21:00,
2013-02-12 10:32:00,31.0,22.0,-100.00,SW,230,1.0,10.0,66,-99.99,,,-99.99,,2013-02-12 15:32:00,
2013-02-12 10:42:00,32.0,22.0,-100.00,SW,230,1.0,4.0,66,-99.99,,,-99.99,,2013-02-12 15:42:00,
2013-02-12 10:52:00,32.0,22.0,-100.00,SW,230,1.0,4.0,66,-99.99,,,-99.99,,2013-02-12 15:52:00,
2013-02-12 11:01:00,32.0,22.0,-100.00,SW,230,1.0,4.0,66,-99.99,,,-99.99,,2013-02-12 16:01:00,
2013-02-12 11:11:00,32.0,22.0,-100.00,SW,225,1.0,6.0,66,-99.99,,,-99.99,,2013-02-12 16:11:00,
2013-02-12 11:22:00,32.0,22.0,-100.00,SW,225,1.0,8.0,65,-99.99,,,-99.99,,2013-02-12 16:22:00,
2013-02-12 11:32:00,32.0,22.0,-100.00,SW,225,2.0,7.0,65,-99.99,,,-99.99,,2013-02-12 16:32:00,
2013-02-12 11:42:00,33.0,22.0,-100.00,SW,220,2.0,6.0,64,-99.99,,,-99.99,,2013-02-12 16:42:00,
2013-02-12 11:51:00,33.0,22.0,-100.00,SSW,210,2.0,7.0,63,-99.99,,,-99.99,,2013-02-12 16:51:00,
2013-02-12 12:01:00,33.0,22.0,-100.00,SSW,210,1.0,6.0,63,-99.99,,,-99.99,,2013-02-12 17:01:00,
2013-02-12 12:12:00,34.0,22.0,-100.00,SSW,210,1.0,4.0,62,-99.99,,,-99.99,,2013-02-12 17:12:00,
2013-02-12 12:21:00,34.0,22.0,-100.00,SSW,210,1.0,4.0,62,-99.99,,,-99.99,,2013-02-12 17:21:00,
2013-02-12 12:32:00,34.0,23.0,-100.00,SSW,210,1.0,6.0,63,-99.99,,,-99.99,,2013-02-12 17:32:00,
2013-02-12 12:42:00,34.0,22.0,-100.00,SSW,210,0.0,4.0,62,-99.99,,,-99.99,,2013-02-12 17:42:00,
2013-02-12 12:52:00,34.0,23.0,-100.00,SSW,205,0.0,4.0,61,-99.99,,,-99.99,,2013-02-12 17:52:00,
2013-02-12 13:02:00,34.0,22.0,-100.00,SSW,205,0.0,6.0,61,-99.99,,,-99.99,,2013-02-12 18:02:00,
2013-02-12 13:11:00,35.0,23.0,-100.00,SSW,205,1.0,6.0,61,-99.99,,,-99.99,,2013-02-12 18:11:00,
2013-02-12 13:23:00,34.0,22.0,-100.00,SSW,200,1.0,7.0,60,-99.99,,,-99.99,,2013-02-12 18:23:00,
2013-02-12 13:32:00,35.0,22.0,-100.00,SSW,200,0.0,4.0,59,-99.99,,,-99.99,,2013-02-12 18:32:00,
2013-02-12 13:41:00,35.0,22.0,-100.00,South,190,0.0,4.0,57,-99.99,,,-99.99,,2013-02-12 18:41:00,
2013-02-12 13:51:00,35.0,22.0,-100.00,South,190,0.0,2.0,57,-99.99,,,-99.99,,2013-02-12 18:51:00,
2013-02-12 14:02:00,36.0,22.0,-100.00,South,190,0.0,5.0,57,-99.99,,,-99.99,,2013-02-12 19:02:00,
2013-02-12 14:11:00,35.0,22.0,-100.00,South,190,3.0,7.0,57,-99.99,,,-99.99,,2013-02-12 19:11:00,
2013-02-12 14:21:00,35.0,22.0,-100.00,SSW,195,1.0,7.0,58,-99.99,,,-99.99,,2013-02-12 19:21:00,
2013-02-12 14:32:00,35.0,22.0,-100.00,SSW,195,3.0,6.0,58,-99.99,,,-99.99,,2013-02-12 19:32:00,
2013-02-12 14:41:00,35.0,22.0,-100.00,SSW,195,1.0,6.0,58,-99.99,,,-99.99,,2013-02-12 19:41:00,
2013-02-12 14:51:00,36.0,23.0,-100.00,SSW,195,1.0,10.0,58,-99.99,,,-99.99,,2013-02-12 19:51:00,
2013-02-12 15:01:00,36.0,23.0,-100.00,South,190,1.0,5.0,57,-99.99,,,-99.99,,2013-02-12 20:01:00,
2013-02-12 15:11:00,36.0,23.0,-100.00,SSW,195,1.0,8.0,58,-99.99,,,-99.99,,2013-02-12 20:11:00,
2013-02-12 15:21:00,36.0,23.0,-100.00,South,190,0.0,3.0,58,-99.99,,,-99.99,,2013-02-12 20:21:00,
2013-02-12 15:32:00,36.0,23.0,-100.00,SSW,195,1.0,8.0,58,-99.99,,,-99.99,,2013-02-12 20:32:00,
2013-02-12 15:41:00,36.0,23.0,-100.00,SSW,195,0.0,4.0,58,-99.99,,,-99.99,,2013-02-12 20:41:00,
2013-02-12 15:52:00,36.0,23.0,-100.00,SSW,195,1.0,7.0,58,-99.99,,,-99.99,,2013-02-12 20:52:00,
2013-02-12 16:02:00,36.0,23.0,-100.00,SSW,195,1.0,4.0,58,-99.99,,,-99.99,,2013-02-12 21:02:00,
2013-02-12 16:11:00,37.0,23.0,-100.00,SSW,195,0.0,6.0,58,-99.99,,,-99.99,,2013-02-12 21:11:00,
2013-02-12 16:21:00,36.0,23.0,-100.00,South,190,1.0,6.0,57,-99.99,,,-99.99,,2013-02-12 21:21:00,
2013-02-12 16:32:00,36.0,23.0,-100.00,South,190,0.0,6.0,57,-99.99,,,-99.99,,2013-02-12 21:32:00,
2013-02-12 16:42:00,36.0,23.0,-100.00,SSW,195,1.0,4.0,58,-99.99,,,-99.99,,2013-02-12 21:42:00,
2013-02-12 16:51:00,36.0,23.0,-100.00,SSW,195,1.0,9.0,58,-99.99,,,-99.99,,2013-02-12 21:51:00,
2013-02-12 17:01:00,36.0,23.0,-100.00,SSW,195,1.0,4.0,58,-99.99,,,-99.99,,2013-02-12 22:01:00,
2013-02-12 17:12:00,36.0,23.0,-100.00,SSW,195,0.0,2.0,59,-99.99,,,-99.99,,2013-02-12 22:12:00,
2013-02-12 17:21:00,36.0,23.0,-100.00,SSW,195,0.0,5.0,59,-99.99,,,-99.99,,2013-02-12 22:21:00,
2013-02-12 17:32:00,36.0,23.0,-100.00,SSW,200,0.0,2.0,59,-99.99,,,-99.99,,2013-02-12 22:32:00,
2013-02-12 17:42:00,36.0,24.0,-100.00,SSW,200,0.0,2.0,59,-99.99,,,-99.99,,2013-02-12 22:42:00,
2013-02-12 17:51:00,36.0,24.0,-100.00,SSW,205,0.0,0.0,61,-99.99,,,-99.99,,2013-02-12 22:51:00,
2013-02-12 18:01:00,36.0,24.0,-100.00,SSW,205,0.0,1.0,61,-99.99,,,-99.99,,2013-02-12 23:01:00,
2013-02-12 18:11:00,36.0,24.0,-100.00,SSW,210,0.0,0.0,62,-99.99,,,-99.99,,2013-02-12 23:11:00,
2013-02-12 18:21:00,35.0,24.0,-100.00,SSW,210,0.0,0.0,63,-99.99,,,-99.99,,2013-02-12 23:21:00,
2013-02-12 18:32:00,35.0,24.0,-100.00,SW,215,0.0,0.0,63,-99.99,,,-99.99,,2013-02-12 23:32:00,
2013-02-12 18:42:00,35.0,24.0,-100.00,SW,215,0.0,1.0,64,-99.99,,,-99.99,,2013-02-12 23:42:00,
2013-02-12 18:52:00,35.0,24.0,-100.00,SW,220,0.0,1.0,65,-99.99,,,-99.99,,2013-02-12 23:52:00,
2013-02-12 19:02:00,34.0,24.0,-100.00,SW,225,0.0,0.0,66,-99.99,,,-99.99,,2013-02-13 00:02:00,
2013-02-12 19:11:00,34.0,24.0,-100.00,SW,230,0.0,0.0,66,-99.99,,,-99.99,,2013-02-13 00:11:00,
2013-02-12 19:21:00,34.0,24.0,-100.00,SW,230,0.0,0.0,67,-99.99,,,-99.99,,2013-02-13 00:21:00,
2013-02-12 19:32:00,33.0,24.0,-100.00,SW,235,0.0,0.0,68,-99.99,,,-99.99,,2013-02-13 00:32:00,
2013-02-12 19:42:00,33.0,24.0,-100.00,WSW,240,0.0,0.0,69,-99.99,,,-99.99,,2013-02-13 00:42:00,
2013-02-12 19:52:00,33.0,25.0,-100.00,WSW,240,0.0,0.0,70,-99.99,,,-99.99,,2013-02-13 00:52:00,
2013-02-12 20:01:00,33.0,25.0,-100.00,WSW,245,0.0,0.0,71,-99.99,,,-99.99,,2013-02-13 01:01:00,
2013-02-12 20:11:00,33.0,25.0,-100.00,WSW,245,1.0,3.0,71,-99.99,,,-99.99,,2013-02-13 01:11:00,
2013-02-12 20:21:00,34.0,25.0,-100.00,WSW,240,1.0,6.0,69,-99.99,,,-99.99,,2013-02-13 01:21:00,
2013-02-12 20:31:00,34.0,25.0,-100.00,SW,235,3.0,7.0,68,-99.99,,,-99.99,,2013-02-13 01:31:00,
2013-02-12 20:42:00,34.0,25.0,-100.00,SW,235,2.0,7.0,68,-99.99,,,-99.99,,2013-02-13 01:42:00,
2013-02-12 20:51:00,34.0,25.0,-100.00,SW,235,0.0,7.0,68,-99.99,,,-99.99,,2013-02-13 01:51:00,
2013-02-12 21:01:00,34.0,24.0,-100.00,SW,235,2.0,6.0,68,-99.99,,,-99.99,,2013-02-13 02:01:00,
2013-02-12 21:11:00,33.0,24.0,-100.00,SW,235,2.0,5.0,68,-99.99,,,-99.99,,2013-02-13 02:11:00,
2013-02-12 21:22:00,33.0,24.0,-100.00,SW,235,0.0,4.0,69,-99.99,,,-99.99,,2013-02-13 02:22:00,
2013-02-12 21:32:00,33.0,24.0,-100.00,WSW,240,0.0,4.0,69,-99.99,,,-99.99,,2013-02-13 02:32:00,
2013-02-12 21:42:00,33.0,24.0,-100.00,WSW,240,2.0,8.0,70,-99.99,,,-99.99,,2013-02-13 02:42:00,
2013-02-12 21:52:00,33.0,24.0,-100.00,WSW,240,2.0,5.0,70,-99.99,,,-99.99,,2013-02-13 02:52:00,
2013-02-12 22:01:00,32.0,24.0,-100.00,WSW,245,1.0,5.0,70,-99.99,,,-99.99,,2013-02-13 03:01:00,
2013-02-12 22:11:00,32.0,24.0,-100.00,WSW,245,0.0,3.0,71,-99.99,,,-99.99,,2013-02-13 03:11:00,
2013-02-12 22:21:00,32.0,24.0,-100.00,WSW,245,0.0,4.0,71,-99.99,,,-99.99,,2013-02-13 03:21:00,
2013-02-12 22:32:00,31.0,23.0,-100.00,WSW,250,0.0,2.0,72,-99.99,,,-99.99,,2013-02-13 03:32:00,
2013-02-12 22:42:00,31.0,24.0,-100.00,WSW,250,0.0,1.0,72,-99.99,,,-99.99,,2013-02-13 03:42:00,
2013-02-12 22:51:00,31.0,23.0,-100.00,WSW,250,0.0,3.0,72,-99.99,,,-99.99,,2013-02-13 03:51:00,
2013-02-12 23:01:00,31.0,23.0,-100.00,WSW,250,0.0,3.0,72,-99.99,,,-99.99,,2013-02-13 04:01:00,
2013-02-12 23:11:00,31.0,23.0,-100.00,WSW,255,1.0,3.0,73,-99.99,,,-99.99,,2013-02-13 04:11:00,
2013-02-12 23:21:00,31.0,23.0,-100.00,WSW,250,1.0,3.0,72,-99.99,,,-99.99,,2013-02-13 04:21:00,
2013-02-12 23:32:00,31.0,23.0,-100.00,WSW,250,0.0,3.0,72,-99.99,,,-99.99,,2013-02-13 04:32:00,
2013-02-12 23:42:00,31.0,23.0,-100.00,WSW,250,1.0,4.0,72,-99.99,,,-99.99,,2013-02-13 04:42:00,
2013-02-12 23:51:00,31.0,23.0,-100.00,WSW,250,2.0,6.0,72,-99.99,,,-99.99,,2013-02-13 04:51:00,